Temp
66 70 70 68 67 69 69 70 67 67 67 64 64 66 65 64 58 60 60 60 60 59
67 66 67 66 66 69 67 68 67 67 66 67 65 65 65 66 62 60 60 60 62 56
68 68 67 67 65 65 65 65 65 66 66 66 65 63 62 61 63 60 63 60 61 59
65 67 66 64 66 65 64 65 65 66 66 66 65 64 61 59 60 59 61 61 59 61
65 63 64 62 64 64 63 65 65 66 66 67 66 65 63 63 62 62 60 60 59 59
63 64 64 64 64 64 64 65 65 65 65 65 64 64 63 61 61 62 60 59 57 57
64 64 64 65 64 64 63 64 64 64 64 64 65 62 59 59 58 59 59 58 59 58
64 65 65 63 62 62 63 64 64 64 64 64 63 59 55 56 56 57 55 57 59 58
65 65 65 65 63 63 63 63 63 63 62 59 59 48 49 51 55 57 53 55 58 57
66 65 65 65 64 63 62 62 62 62 62 56 55 47 47 48 55 55 56 54 53 55
67 66 66 65 64 63 63 62 62 62 62 58 59 48 46 47 54 55 55 54 54 53
67 65 65 65 63 63 62 62 62 63 61 59 58 47 46 49 55 55 54 56 56 53
66 64 64 64 63 63 63 62 65 63 63 60 57 47 46 49 56 52 53 53 53 50
66 65 65 64 64 63 63 63 62 62 63 63 59 56 47 46 54 52 51 52 51 53
MSLP
1020.01 1019.54 1019.35 1019.55 1019.61 1018.96 1018.64 1018.50 1018.61 1018.40 1018.36 1018.34 1017.98 1017.75 1017.68 1017.41 1017.41 1017.05 1016.73 1016.44 1016.02 1015.77
1020.01 1019.94 1019.95 1019.79 1019.61 1019.08 1018.96 1018.84 1018.52 1018.34 1018.28 1017.74 1017.62 1017.39 1017.26 1016.93 1016.92 1016.77 1016.41 1015.97 1015.43 1015.39
1019.86 1019.93 1019.93 1019.91 1019.62 1019.40 1019.19 1019.02 1018.65 1018.21 1017.91 1017.60 1017.46 1017.43 1017.30 1017.03 1016.72 1016.45 1015.93 1015.55 1015.08 1014.81
1019.98 1019.94 1020.01 1019.90 1019.63 1019.47 1019.27 1018.81 1018.35 1018.01 1017.67 1017.33 1017.07 1016.98 1016.89 1016.79 1016.22 1016.11 1015.59 1015.18 1014.89 1014.32
1020.28 1020.30 1019.98 1019.99 1019.61 1019.60 1019.27 1018.66 1018.25 1017.79 1017.44 1017.05 1016.83 1016.79 1016.51 1016.29 1016.19 1015.67 1015.23 1014.86 1014.67 1014.28
1020.32 1020.16 1019.97 1019.87 1019.70 1019.53 1019.30 1018.69 1018.27 1017.92 1017.56 1017.17 1017.09 1016.81 1016.58 1016.97 1016.48 1015.49 1015.16 1014.88 1014.64 1014.26
1019.92 1019.99 1019.84 1019.79 1019.64 1019.54 1019.31 1018.77 1018.56 1018.22 1017.85 1017.54 1017.15 1017.07 1017.54 1017.46 1016.84 1015.76 1015.11 1014.92 1014.41 1014.12
1020.07 1019.88 1019.74 1019.78 1019.80 1019.57 1019.20 1018.86 1018.65 1018.21 1017.84 1017.56 1017.42 1018.10 1018.16 1017.67 1016.95 1015.95 1015.28 1014.79 1014.29 1014.03
1019.75 1019.76 1019.49 1019.39 1019.44 1019.21 1019.06 1018.88 1018.59 1018.24 1017.97 1018.19 1018.35 1018.69 1018.30 1017.92 1016.97 1015.78 1015.41 1014.56 1014.13 1013.99
1019.48 1019.40 1019.18 1019.03 1018.98 1018.89 1018.92 1018.78 1018.42 1018.17 1017.95 1018.44 1018.52 1018.63 1018.34 1017.78 1016.83 1015.91 1015.29 1014.87 1014.42 1013.92
1019.14 1018.97 1018.99 1018.78 1018.54 1018.54 1018.57 1018.45 1018.10 1017.86 1017.70 1018.08 1017.82 1018.17 1018.11 1017.63 1016.57 1015.82 1015.36 1014.88 1014.39 1013.98
1019.07 1018.95 1018.72 1018.43 1018.42 1018.38 1018.26 1018.10 1017.71 1017.41 1017.31 1017.48 1017.42 1017.69 1017.70 1017.22 1016.47 1015.70 1015.32 1014.82 1014.13 1014.14
1019.08 1018.96 1018.74 1018.56 1018.50 1018.28 1018.05 1017.68 1017.25 1017.07 1016.85 1016.53 1016.70 1017.30 1017.24 1017.03 1016.23 1015.62 1015.11 1014.65 1014.20 1013.91
1018.96 1018.81 1018.48 1018.38 1018.33 1018.00 1017.65 1017.40 1017.11 1016.62 1016.19 1015.67 1016.01 1016.56 1016.82 1016.92 1016.51 1015.88 1015.41 1014.56 1013.94 1013.58
Wind_Speed
5 4 4 5 5 6 7 8 10 9 10 7 7 7 9 8 7 6 7 10 9 8
5 5 5 5 6 7 8 9 10 10 11 11 9 10 10 8 9 8 8 10 9 7
3 5 5 6 7 9 9 10 10 11 11 10 8 10 9 9 10 10 10 8 9 8
5 5 5 5 8 10 10 10 10 10 10 10 9 9 5 9 9 9 12 9 10 11
6 5 6 6 9 10 10 10 10 10 10 11 11 12 11 14 14 15 11 12 10 11
4 4 5 6 8 9 10 11 11 11 11 11 11 12 11 14 16 15 12 11 9 8
5 6 6 6 8 9 10 10 11 11 11 10 10 11 12 14 16 16 9 11 10 9
5 6 6 6 6 6 8 9 10 10 10 10 10 10 13 15 16 16 12 10 10 7
5 6 5 6 7 7 8 9 9 10 10 12 7 9 14 15 14 15 12 9 10 9
5 6 6 7 7 8 8 9 9 10 9 8 7 6 11 17 13 11 10 10 9 10
6 7 8 7 8 7 8 9 9 9 8 7 5 2 7 14 11 10 11 11 11 10
6 8 9 8 9 9 8 9 10 9 8 9 9 6 3 8 12 9 13 13 13 8
7 8 9 9 9 8 8 10 9 11 10 12 6 8 3 5 10 10 9 10 10 4
7 8 9 7 8 9 9 9 10 11 10 11 3 2 5 5 10 11 12 12 10 8
Wind_Direction
23 37 357 19 336 311 331 325 346 326 319 308 301 316 322 323 308 304 309 309 311 305
28 20 360 344 333 357 333 330 334 315 311 313 323 318 322 315 310 306 305 303 313 309
38 6 359 345 347 345 339 328 320 313 310 312 320 318 309 311 311 310 302 307 309 307
359 17 350 348 354 350 335 331 324 322 318 312 302 286 310 288 278 314 309 306 317 318
359 312 7 358 358 350 340 337 329 326 319 315 328 326 318 325 330 309 310 317 315 327
325 328 327 346 351 349 341 346 340 332 327 325 331 319 355 337 320 317 320 322 315 326
341 338 329 334 346 343 345 349 343 336 326 327 323 22 358 337 326 312 313 314 314 331
306 304 331 343 331 318 341 346 340 337 335 336 348 26 352 338 321 311 332 311 317 332
321 299 299 308 323 321 334 338 336 338 343 7 346 355 344 335 322 325 316 317 326 327
316 306 313 319 312 319 321 321 327 332 345 1 347 355 336 329 326 311 326 333 324 314
317 319 318 313 308 315 310 312 318 315 333 348 344 278 331 330 314 318 334 320 323 325
322 320 317 318 330 320 317 311 302 307 331 313 313 174 290 340 324 336 335 334 324 341
320 320 318 329 322 318 313 301 329 313 320 293 254 188 211 314 326 321 328 324 315 291
316 319 296 324 320 314 315 318 302 301 299 301 150 45 223 275 322 334 324 317 317 321